Hourly Data Report for March 30, 2017

All times are specified in Local Standard Time (LST). Add 1 hour to adjust for Daylight Saving Time where and when it is observed.

TORONTO CITY
ONTARIO

43°40'00.000" N
79°24'00.000" W
112.50 m
6158355
71508
XTO

Download Data

Hourly Data (March 2017)
Hourly Data Report for March 30, 2017
TIME Temp Definition
°C
Dew Point Definition
°C
Rel Hum Definition
%
Wind Dir Definition
10's deg

Wind Spd Definition
km/h
Visibility Definition
km
Stn Press Definition
kPa
Hmdx Definition


Wind Chill Definition


Weather Definition


00:00 4.4 -1.9 64 LegendMM LegendMM   101.12     LegendNANA
01:00 3.8 -3.5 59 LegendMM LegendMM   101.22     LegendNANA
02:00 3.4 -3.7 60 LegendMM LegendMM   101.22     LegendNANA
03:00 3.3 -4.4 57 LegendMM LegendMM   101.25     LegendNANA
04:00 2.9 -4.7 57 LegendMM LegendMM   101.11     LegendNANA
05:00 2.5 -4.5 60 LegendMM LegendMM   101.12     LegendNANA
06:00 2.7 -3.7 63 LegendMM LegendMM   101.07     LegendNANA
07:00 2.7 -3.2 65 LegendMM LegendMM   101.03     LegendNANA
08:00 3.0 -3.0 65 LegendMM LegendMM   101.03     LegendNANA
09:00 3.2 -2.9 64 LegendMM LegendMM   100.92     LegendNANA
10:00 3.1 -3.1 64 LegendMM LegendMM   100.97     LegendNANA
11:00 3.1 -3.4 63 LegendMM LegendMM   100.89     LegendNANA
12:00 2.8 -3.4 63 LegendMM LegendMM   100.84     LegendNANA
13:00 2.7 -2.5 69 LegendMM LegendMM   100.74     LegendNANA
14:00 3.2 -5.2 54 LegendMM LegendMM   100.59     LegendNANA
15:00 2.9 -4.7 57 LegendMM LegendMM   100.48     LegendNANA
16:00 2.3 -3.1 68 LegendMM LegendMM   100.47     LegendNANA
17:00 0.8 -0.8 89 LegendMM LegendMM   100.36     LegendNANA
18:00 1.0 -0.3 91 LegendMM LegendMM   100.35     LegendNANA
19:00 0.7 -0.3 93 LegendMM LegendMM   100.35     LegendNANA
20:00 0.8 -0.1 94 LegendMM LegendMM   100.30     LegendNANA
21:00 0.9 -0.2 93 LegendMM LegendMM   100.15     LegendNANA
22:00 1.3 0.1 91 LegendMM LegendMM   100.10     LegendNANA
23:00 1.6 0.2 91 LegendMM LegendMM   99.98     LegendNANA

Notes on Data Quality.

Legend

  • E = Estimated
  • M = Missing
  • NA = Not Available
Date modified: